Sigfox identifier Datetime Temperature Humidity SNR
003A77C4 2019-03-18 13:37:41 20.8 27 20
003A77C4 2019-03-18 13:06:17 20.8 27 19.9
003A77C4 2019-03-18 12:34:51 20.7 27 19.9
003A77C4 2019-03-18 12:03:26 20.7 27 19.9
003A77C4 2019-03-18 11:32:03 20.7 27 19.6
003A77C4 2019-03-18 11:00:39 20.7 27 19.6
003A77C4 2019-03-18 10:29:15 20.6 27 19.6
003A77C4 2019-03-18 09:57:50 20.6 27 19.6
003A77C4 2019-03-18 09:26:25 20.6 27 19.6
003A77C4 2019-03-18 08:55:00 20.6 27 19.6
003A77C4 2019-03-18 08:23:35 20.5 27 19.6
003A77C4 2019-03-18 07:52:10 20.6 27 20
003A77C4 2019-03-18 07:20:45 20.6 27 20.3
003A77C4 2019-03-18 06:49:22 20.6 27 20.3
003A77C4 2019-03-18 06:17:59 20.6 27 20.4
003A77C4 2019-03-18 05:46:03 20.6 27 21.6
003A77C4 2019-03-18 05:14:40 20.6 27 21.6
003A77C4 2019-03-18 04:43:17 20.6 27 21.8
003A77C4 2019-03-18 04:11:52 20.6 27 21.7
003A77C4 2019-03-18 03:40:27 20.6 27 21.6
003A77C4 2019-03-18 03:09:04 20.6 27 21.5
003A77C4 2019-03-18 02:37:41 20.6 27 21.4
003A77C4 2019-03-18 02:06:18 20.6 27 21.2
003A77C4 2019-03-18 01:34:54 20.6 26 21.2
003A77C4 2019-03-18 01:03:29 20.5 26 21.1
003A77C4 2019-03-18 00:32:04 20.6 26 21.1
003A77C4 2019-03-18 00:00:41 20.6 26 21
003A77C4 2019-03-17 23:29:18 20.6 26 21.2
003A77C4 2019-03-17 22:57:54 20.6 26 21.1
003A77C4 2019-03-17 22:26:30 20.6 26 21
003A77C4 2019-03-17 21:55:07 20.6 26 21
003A77C4 2019-03-17 21:23:45 20.6 26 21
003A77C4 2019-03-17 20:52:20 20.6 26 21
003A77C4 2019-03-17 20:20:56 20.6 26 21
003A77C4 2019-03-17 19:49:32 20.6 26 21
003A77C4 2019-03-17 19:18:09 20.6 26 20.6
003A77C4 2019-03-17 18:46:47 20.6 26 20.4
003A77C4 2019-03-17 18:15:24 20.6 26 21.7
003A77C4 2019-03-17 17:44:00 20.5 26 21.6
003A77C4 2019-03-17 17:12:38 20.6 26 20.3
003A77C4 2019-03-17 16:41:15 20.6 26 20.4
003A77C4 2019-03-17 16:09:51 20.6 26 20.4
003A77C4 2019-03-17 15:38:28 20.6 26 20.3
003A77C4 2019-03-17 15:07:04 20.6 26 20.2
003A77C4 2019-03-17 14:35:41 20.6 26 20.3
003A77C4 2019-03-17 14:04:16 20.6 27 20.5
003A77C4 2019-03-17 13:32:52 20.6 27 20.5
003A77C4 2019-03-17 13:01:29 20.6 26 20.7
003A77C4 2019-03-17 12:30:05 20.6 26 20.7
003A77C4 2019-03-17 11:58:39 20.6 26 20.8
003A77C4 2019-03-17 11:27:15 20.6 27 20.8
003A77C4 2019-03-17 10:55:50 20.6 26 20.9
003A77C4 2019-03-17 10:24:23 20.6 27 20.7
003A77C4 2019-03-17 09:52:59 20.6 26 20.7
003A77C4 2019-03-17 09:21:36 20.6 26 20.6
003A77C4 2019-03-17 08:50:14 20.6 27 20.6
003A77C4 2019-03-17 08:18:51 20.6 27 20.6
003A77C4 2019-03-17 07:47:25 20.6 27 20.5
003A77C4 2019-03-17 07:15:58 20.6 27 20.5
003A77C4 2019-03-17 06:44:29 20.6 27 20.5
003A77C4 2019-03-17 06:13:02 20.5 27 20.5
003A77C4 2019-03-17 05:41:35 20.6 27 20.4
003A77C4 2019-03-17 05:10:10 20.6 27 18.5
003A77C4 2019-03-17 04:38:45 20.6 27 18.7
003A77C4 2019-03-17 04:07:19 20.6 27 18.6
003A77C4 2019-03-17 03:35:13 20.6 27 18.7
003A77C4 2019-03-17 03:03:47 20.6 27 18.5
003A77C4 2019-03-17 02:32:20 20.6 27 18.2
003A77C4 2019-03-17 02:00:53 20.6 27 18.3
003A77C4 2019-03-17 01:29:26 20.6 27 18.1
003A77C4 2019-03-17 00:58:00 20.5 27 17.8
003A77C4 2019-03-17 00:26:35 20.6 27 17.8
003A77C4 2019-03-16 23:55:10 20.6 27 17.3
003A77C4 2019-03-16 23:23:44 20.6 27 17.4
003A77C4 2019-03-16 22:52:20 20.6 27 17.1
003A77C4 2019-03-16 22:20:54 20.6 27 17.3
003A77C4 2019-03-16 21:49:30 20.6 27 17.5
003A77C4 2019-03-16 21:18:06 20.6 26 17.5
003A77C4 2019-03-16 20:46:43 20.6 26 17.6
003A77C4 2019-03-16 20:15:18 20.6 26 17.6
003A77C4 2019-03-16 19:43:54 20.6 26 17.7
003A77C4 2019-03-16 19:12:28 20.6 26 17.7
003A77C4 2019-03-16 18:41:04 20.6 26 17.7
003A77C4 2019-03-16 18:09:40 20.6 26 17.8
003A77C4 2019-03-16 17:38:15 20.6 26 18.1
003A77C4 2019-03-16 17:06:50 20.6 26 18.2
003A77C4 2019-03-16 16:35:26 20.6 26 18.2
003A77C4 2019-03-16 16:04:00 20.6 26 18.2
003A77C4 2019-03-16 15:32:35 20.6 26 18.1
003A77C4 2019-03-16 15:01:08 20.6 26 18.2
003A77C4 2019-03-16 14:29:42 20.6 26 18
003A77C4 2019-03-16 13:58:17 20.6 26 18.2
003A77C4 2019-03-16 13:26:53 20.6 26 18.3
003A77C4 2019-03-16 12:55:27 20.6 26 18.4
003A77C4 2019-03-16 12:24:02 20.6 26 18.5
003A77C4 2019-03-16 11:52:38 20.6 26 18.5
003A77C4 2019-03-16 11:21:14 20.6 26 18.7
003A77C4 2019-03-16 10:49:53 20.6 26 20.5
003A77C4 2019-03-16 10:18:27 20.6 26 20.5
003A77C4 2019-03-16 09:47:02 20.6 26 20.5
003A77C4 2019-03-16 09:15:38 20.6 26 20.3
003A77C4 2019-03-16 08:44:16 20.6 26 20.2
003A77C4 2019-03-16 08:12:52 20.6 26 20.2
003A77C4 2019-03-16 07:41:31 20.6 26 20.2
003A77C4 2019-03-16 07:10:07 20.6 26 20.3
003A77C4 2019-03-16 06:38:45 20.6 26 20.3
003A77C4 2019-03-16 06:07:21 20.6 26 20.3
003A77C4 2019-03-16 05:35:58 20.6 26 20.4
003A77C4 2019-03-16 05:04:34 20.6 26 20.5
003A77C4 2019-03-16 04:33:09 20.6 26 20.5
003A77C4 2019-03-16 04:01:42 20.6 26 20.5
003A77C4 2019-03-16 03:30:17 20.6 26 20.5
003A77C4 2019-03-16 02:58:52 20.6 26 20.7
003A77C4 2019-03-16 02:27:26 20.6 26 20.8
003A77C4 2019-03-16 01:55:59 20.6 26 20.8
003A77C4 2019-03-16 01:24:01 20.7 27 20.8
003A77C4 2019-03-16 00:52:36 20.6 27 20.9
003A77C4 2019-03-16 00:21:12 20.6 27 20.8
003A77C4 2019-03-15 23:49:46 20.7 27 21
003A77C4 2019-03-15 23:18:21 20.7 27 21
003A77C4 2019-03-15 22:46:57 20.7 27 21.1
003A77C4 2019-03-15 22:15:32 20.7 27 20.1
003A77C4 2019-03-15 21:44:07 20.7 27 20.3
003A77C4 2019-03-15 21:12:43 20.7 27 20.4
003A77C4 2019-03-15 20:41:20 20.8 27 20.5
003A77C4 2019-03-15 20:09:57 20.8 27 20.5
003A77C4 2019-03-15 19:38:33 20.7 27 20.4
003A77C4 2019-03-15 19:07:08 20.7 26 20.5
003A77C4 2019-03-15 18:35:45 20.8 26 20.7
003A77C4 2019-03-15 18:04:21 20.8 26 21
003A77C4 2019-03-15 17:32:57 20.8 26 21.1
003A77C4 2019-03-15 17:01:32 20.8 26 21.1
003A77C4 2019-03-15 16:30:09 20.8 26 21
003A77C4 2019-03-15 15:58:46 20.8 26 21
003A77C4 2019-03-15 15:27:23 20.8 26 20.9
003A77C4 2019-03-15 14:55:59 20.7 26 20.9
003A77C4 2019-03-15 14:24:35 20.8 26 20.8
003A77C4 2019-03-15 13:53:08 20.8 26 20.7
003A77C4 2019-03-15 13:21:44 20.8 26 20.6
003A77C4 2019-03-15 12:50:22 20.8 26 20.7
003A77C4 2019-03-15 12:18:57 20.7 26 20.7
003A77C4 2019-03-15 11:47:33 20.7 26 20.7
003A77C4 2019-03-15 11:16:07 20.7 26 20.8
003A77C4 2019-03-15 10:44:39 20.7 26 20.5
003A77C4 2019-03-15 10:13:12 20.7 26 20.6
003A77C4 2019-03-15 09:41:49 20.7 26 20.7
003A77C4 2019-03-15 09:10:24 20.6 25 20.3
003A77C4 2019-03-15 08:39:00 20.6 25 20.2
003A77C4 2019-03-15 08:07:35 20.6 25 20.1
003A77C4 2019-03-15 07:36:10 20.6 24 20.1
003A77C4 2019-03-15 07:04:48 20.6 24 20.1
003A77C4 2019-03-15 06:33:25 20.6 24 20.1
003A77C4 2019-03-15 06:02:02 20.6 24 20.1
003A77C4 2019-03-15 05:30:39 20.6 24 19.9
003A77C4 2019-03-15 04:59:16 20.6 24 19.6
003A77C4 2019-03-15 04:27:51 20.6 24 19.7
003A77C4 2019-03-15 03:56:28 20.6 24 19.7
003A77C4 2019-03-15 03:25:05 20.6 24 19.5
003A77C4 2019-03-15 02:53:42 20.6 24 19.4
003A77C4 2019-03-15 02:22:18 20.6 24 19.6
003A77C4 2019-03-15 01:50:54 20.6 24 19.5
003A77C4 2019-03-15 01:19:31 20.6 24 19.6
003A77C4 2019-03-15 00:48:06 20.7 24 19.6
003A77C4 2019-03-15 00:16:41 20.7 24 19.8
003A77C4 2019-03-14 23:45:19 20.7 24 19.9
003A77C4 2019-03-14 23:13:23 20.7 24 20.1
003A77C4 2019-03-14 22:42:00 20.7 24 20.3
003A77C4 2019-03-14 22:10:38 20.8 24 20.3
003A77C4 2019-03-14 21:39:15 20.8 24 20.3
003A77C4 2019-03-14 21:07:53 20.8 24 20.1
003A77C4 2019-03-14 20:36:28 20.8 24 20.4
003A77C4 2019-03-14 20:05:03 20.8 24 20.4
003A77C4 2019-03-14 19:33:39 20.8 24 20.4
003A77C4 2019-03-14 19:02:15 20.8 24 20.4
003A77C4 2019-03-14 18:30:52 20.9 24 20.5
003A77C4 2019-03-14 17:59:27 20.9 24 20.5
003A77C4 2019-03-14 17:28:05 20.9 24 20.6
003A77C4 2019-03-14 16:56:40 20.9 24 20.6
003A77C4 2019-03-14 16:25:17 20.9 24 20.7
003A77C4 2019-03-14 15:53:55 20.9 24 20.7
003A77C4 2019-03-14 15:22:32 20.9 24 20.7
003A77C4 2019-03-14 14:51:09 20.9 24 20.9
003A77C4 2019-03-14 14:19:46 20.9 24 21
003A77C4 2019-03-14 13:48:23 20.9 24 20.9
003A77C4 2019-03-14 13:16:59 20.9 24 21
003A77C4 2019-03-14 12:45:37 20.8 24 21
003A77C4 2019-03-14 12:14:16 20.8 23 21.1
003A77C4 2019-03-14 11:42:51 20.8 23 21.1
003A77C4 2019-03-14 11:11:26 20.8 23 21.1
003A77C4 2019-03-14 10:40:00 20.7 23 20.9
003A77C4 2019-03-14 10:08:37 20.7 23 20.9
003A77C4 2019-03-14 09:37:13 20.7 22 20.8
003A77C4 2019-03-14 09:05:50 20.7 21 20.7
003A77C4 2019-03-14 04:54:43 20.6 19 20.5
003A77C4 2019-03-14 04:23:20 20.6 19 20.5
003A77C4 2019-03-14 03:51:57 20.6 18 20.4
003A77C4 2019-03-14 03:20:33 20.6 18 20.2
003A77C4 2019-03-14 02:49:12 20.6 18 20.1
003A77C4 2019-03-14 02:17:52 20.6 18 21.4
003A77C4 2019-03-14 01:46:31 20.6 18 21.4
003A77C4 2019-03-14 01:15:10 20.6 18 21.3
003A77C4 2019-03-14 00:43:48 20.6 17 21.2
003A77C4 2019-03-14 00:12:26 20.6 17 21.2
003A77C4 2019-03-13 23:41:02 20.6 17 21.1
003A77C4 2019-03-13 23:09:40 20.6 17 21
003A77C4 2019-03-13 22:38:17 20.6 17 20.9
003A77C4 2019-03-13 22:06:54 20.6 17 20.7
003A77C4 2019-03-13 21:35:32 20.7 17 20.7
003A77C4 2019-03-13 21:03:35 20.7 16 20.7
003A77C4 2019-03-13 20:32:12 20.7 16 20.9
003A77C4 2019-03-13 20:00:49 20.7 16 20.9
003A77C4 2019-03-13 19:29:24 20.7 16 21
003A77C4 2019-03-13 18:58:00 20.8 16 21
003A77C4 2019-03-13 18:26:41 20.8 16 21.1
003A77C4 2019-03-13 17:55:18 20.9 16 21.2
003A77C4 2019-03-13 17:23:54 20.9 16 21.2
003A77C4 2019-03-13 16:52:32 20.9 16 21.2
003A77C4 2019-03-13 16:21:08 20.9 16 21.3
003A77C4 2019-03-13 15:49:45 20.9 16 21.2
003A77C4 2019-03-13 15:18:23 20.9 16 21.2
003A77C4 2019-03-13 14:46:59 20.8 16 21.3
003A77C4 2019-03-13 14:15:35 20.8 16 21.4
003A77C4 2019-03-13 13:44:13 20.8 16 21.4
003A77C4 2019-03-13 13:12:49 20.8 16 21.5
003A77C4 2019-03-13 12:41:26 20.8 16 21.5
003A77C4 2019-03-13 12:10:07 20.8 16 21.5
003A77C4 2019-03-13 11:38:44 20.8 16 21.5
003A77C4 2019-03-13 11:07:22 20.7 17 21.5
003A77C4 2019-03-13 10:36:00 20.7 16 21.5
003A77C4 2019-03-13 10:04:37 20.6 16 21.6
003A77C4 2019-03-13 09:33:11 20.4 15 21.7
003A77C4 2019-03-13 09:01:48 20.3 14 21.6
003A77C4 2019-03-13 08:30:24 20.3 14 21.5
003A77C4 2019-03-13 07:59:00 20.3 14 21.6
003A77C4 2019-03-13 07:27:34 20.4 15 21.4
003A77C4 2019-03-13 06:56:09 20.3 15 21.3
003A77C4 2019-03-13 06:24:44 20.3 15 21.2
003A77C4 2019-03-13 05:53:21 20.4 15 21.1
003A77C4 2019-03-13 05:21:57 20.4 15 20.9
003A77C4 2019-03-13 04:50:30 20.4 15 20.8
003A77C4 2019-03-13 04:19:06 20.4 15 20.6
003A77C4 2019-03-13 03:47:42 20.4 15 20.6
003A77C4 2019-03-13 03:16:19 20.4 16 20.7
003A77C4 2019-03-13 02:44:55 20.5 16 20.8
003A77C4 2019-03-13 02:13:30 20.5 16 20.9
003A77C4 2019-03-13 01:42:06 20.4 16 22
003A77C4 2019-03-13 01:10:40 20.5 16 21.9
003A77C4 2019-03-13 00:39:16 20.5 16 20.9
003A77C4 2019-03-13 00:07:52 20.5 16 20.7
003A77C4 2019-03-12 23:36:29 20.5 16 21.9
003A77C4 2019-03-12 23:05:07 20.5 16 21.9
003A77C4 2019-03-12 22:33:43 20.6 16 21.9
003A77C4 2019-03-12 22:02:21 20.6 16 22.9
003A77C4 2019-03-12 21:30:59 20.6 16 23.6
003A77C4 2019-03-12 20:59:37 20.6 16 24.2
003A77C4 2019-03-12 20:28:15 20.6 16 24.8
003A77C4 2019-03-12 19:56:51 20.7 16 25.3
003A77C4 2019-03-12 19:25:29 20.9 16 25.8
003A77C4 2019-03-12 19:24:15 20.6 16 26.2
003A77C4 2019-03-12 18:52:53 20.7 16 26.6
003A77C4 2019-03-12 18:21:28 20.7 16 26.9
003A77C4 2019-03-12 17:50:06 20.7 16 27.2
003A77C4 2019-03-12 17:18:44 20.7 16 27.5
003A77C4 2019-03-12 16:47:21 20.7 16 27.8
003A77C4 2019-03-12 16:15:59 20.7 16 27.8
003A77C4 2019-03-12 15:44:38 20.7 16 28.1
003A77C4 2019-03-12 15:13:15 20.7 16 28.3
003A77C4 2019-03-12 14:41:52 20.7 16 28.5
003A77C4 2019-03-12 14:10:29 20.6 16 28.5
003A77C4 2019-03-12 13:39:04 20.7 16 28.7
003A77C4 2019-03-12 13:07:41 20.6 16 28.7
003A77C4 2019-03-12 12:36:17 20.6 16 28.9
003A77C4 2019-03-12 12:04:54 20.6 15 29.1
003A77C4 2019-03-12 11:33:31 20.5 15 29.3
003A77C4 2019-03-12 11:02:08 20.5 15 29.3
003A77C4 2019-03-12 10:30:47 20.5 15 29.5
003A77C4 2019-03-12 09:59:25 20.4 15 29.7
003A77C4 2019-03-12 09:28:02 20.4 15 29.7
003A77C4 2019-03-12 08:56:40 20.3 15 29.7
003A77C4 2019-03-12 08:25:18 20.3 15 29.7
003A77C4 2019-03-12 07:53:55 20.3 15 29.7
003A77C4 2019-03-12 07:22:33 20.3 15 29.7
003A77C4 2019-03-12 06:51:11 20.4 15 29.7
003A77C4 2019-03-12 06:19:46 20.4 16 29.7
003A77C4 2019-03-12 05:48:22 20.4 16 29.7
003A77C4 2019-03-12 05:16:57 20.4 16 29.7
003A77C4 2019-03-12 04:45:34 20.4 16 29.7
003A77C4 2019-03-12 04:14:11 20.4 16 29.5
003A77C4 2019-03-12 03:42:50 20.4 16 29.3
003A77C4 2019-03-12 03:11:26 20.4 16 29.3
003A77C4 2019-03-12 02:40:04 20.5 16 29.1
003A77C4 2019-03-12 01:37:14 20.5 16 28.7
003A77C4 2019-03-12 01:05:49 20.5 16 28.7
003A77C4 2019-03-12 00:34:24 20.5 16 28.5
003A77C4 2019-03-12 00:03:00 20.5 16 28.3
003A77C4 2019-03-11 23:31:35 20.5 16 28
003A77C4 2019-03-11 23:00:10 20.6 16 27.8
003A77C4 2019-03-11 22:28:47 20.6 16 27.6
003A77C4 2019-03-11 21:57:22 20.6 16 27.3
003A77C4 2019-03-11 21:25:56 20.6 16 26.9
003A77C4 2019-03-11 20:54:31 20.6 16 26.6
003A77C4 2019-03-11 20:23:08 20.7 16 26.2
003A77C4 2019-03-11 19:51:46 20.7 16 25.8
003A77C4 2019-03-11 19:20:23 20.7 16 25.4
003A77C4 2019-03-11 18:49:02 20.7 16 24.9
003A77C4 2019-03-11 18:17:40 20.8 16 24.4
003A77C4 2019-03-11 17:46:17 20.8 16 23.7
003A77C4 2019-03-11 17:14:22 20.8 16 22.1
003A77C4 2019-03-11 16:42:59 20.8 16 21
003A77C4 2019-03-11 16:11:34 20.8 16 19.6
003A77C4 2019-03-11 15:40:09 20.7 16 19.8
003A77C4 2019-03-11 15:08:44 20.6 16 19.8
003A77C4 2019-03-11 14:37:20 20.6 16 19.9
003A77C4 2019-03-11 14:05:54 20.6 16 20.1
003A77C4 2019-03-11 13:34:29 20.5 16 20.1
003A77C4 2019-03-11 13:03:04 20.5 16 19.8
003A77C4 2019-03-11 12:31:41 20.5 16 20
003A77C4 2019-03-11 12:00:20 20.5 16 20.2
003A77C4 2019-03-11 11:28:55 20.5 16 20.5
003A77C4 2019-03-11 10:57:32 20.5 16 20.6
003A77C4 2019-03-11 10:26:09 20.5 16 20.5
003A77C4 2019-03-11 09:54:47 20.4 17 20.3
003A77C4 2019-03-11 09:23:22 20.4 17 20.4
003A77C4 2019-03-11 08:51:59 20.3 17 20.4
003A77C4 2019-03-11 08:20:34 20.3 17 20.3
003A77C4 2019-03-11 07:49:08 20.3 17 20.5
003A77C4 2019-03-11 07:17:46 20.4 17 21.8
003A77C4 2019-03-11 06:46:22 20.3 18 21.9
003A77C4 2019-03-11 06:14:57 20.4 18 21.8
003A77C4 2019-03-11 05:43:32 20.4 18 21.8
003A77C4 2019-03-11 05:12:08 20.4 18 21.8
003A77C4 2019-03-11 04:40:45 20.4 18 21.7
003A77C4 2019-03-11 04:09:21 20.4 18 21.7
003A77C4 2019-03-11 03:37:56 20.4 18 21.7
003A77C4 2019-03-11 03:06:33 20.4 18 21.7
003A77C4 2019-03-11 02:35:08 20.4 18 21.6
003A77C4 2019-03-11 02:03:46 20.4 18 21.7
003A77C4 2019-03-11 01:32:24 20.4 19 21.6
003A77C4 2019-03-11 01:01:04 20.4 19 21.6
003A77C4 2019-03-11 00:29:43 20.5 19 21.5
003A77C4 2019-03-10 23:58:21 20.5 19 21.6
003A77C4 2019-03-10 23:26:59 20.5 19 21.6
003A77C4 2019-03-10 22:55:33 20.5 19 21.5
003A77C4 2019-03-10 22:24:08 20.5 19 21.4
003A77C4 2019-03-10 21:52:44 20.5 19 21.2
003A77C4 2019-03-10 21:21:21 20.6 19 21.2
003A77C4 2019-03-10 20:49:56 20.6 19 21.2
003A77C4 2019-03-10 20:18:30 20.6 19 21.2
003A77C4 2019-03-10 19:47:06 20.6 19 21.2
003A77C4 2019-03-10 19:15:43 20.6 19 21.2
003A77C4 2019-03-10 18:44:19 20.7 20 21.1
003A77C4 2019-03-10 18:12:58 20.7 20 19.8
003A77C4 2019-03-10 17:41:37 20.7 20 19.9
003A77C4 2019-03-10 17:10:15 20.7 20 19.8
003A77C4 2019-03-10 16:38:51 20.7 20 19.9
003A77C4 2019-03-10 16:07:27 20.7 20 19.9
003A77C4 2019-03-10 15:36:04 20.6 21 20.1
003A77C4 2019-03-10 15:04:08 20.6 21 20.2
003A77C4 2019-03-10 14:32:44 20.6 23 20.1
003A77C4 2019-03-10 14:01:18 20.6 23 20.2
003A77C4 2019-03-10 13:29:53 20.6 23 20.1
003A77C4 2019-03-10 12:58:30 20.6 23 20.1
003A77C4 2019-03-10 12:27:05 20.5 24 20.1
003A77C4 2019-03-10 11:55:41 20.5 24 20.2
003A77C4 2019-03-10 11:24:16 20.5 24 20.3
003A77C4 2019-03-10 10:52:52 20.5 24 20.2
003A77C4 2019-03-10 10:21:27 20.5 24 20.2
003A77C4 2019-03-10 09:50:03 20.5 24 20.2
003A77C4 2019-03-10 09:18:40 20.5 24 20.5
003A77C4 2019-03-10 08:47:16 20.5 24 20.8
003A77C4 2019-03-10 08:15:53 20.5 24 20.8
003A77C4 2019-03-10 07:44:29 20.5 24 20.8
003A77C4 2019-03-10 07:13:04 20.5 24 20.9
003A77C4 2019-03-10 06:41:39 20.5 24 22.1
003A77C4 2019-03-10 06:10:13 20.6 24 22.1
003A77C4 2019-03-10 05:38:47 20.5 24 22
003A77C4 2019-03-10 05:07:23 20.5 24 22
003A77C4 2019-03-10 04:35:55 20.5 24 22
003A77C4 2019-03-10 04:04:30 20.5 24 22
003A77C4 2019-03-10 03:33:05 20.6 24 22
003A77C4 2019-03-10 03:01:40 20.5 24 21.9
003A77C4 2019-03-10 02:30:14 20.6 24 21.9
003A77C4 2019-03-10 01:58:47 20.6 24 21.9
003A77C4 2019-03-10 01:27:22 20.6 24 21.8
003A77C4 2019-03-10 00:55:57 20.6 24 21.7
003A77C4 2019-03-10 00:24:32 20.6 24 21.7
003A77C4 2019-03-09 23:53:07 20.6 24 21.7
003A77C4 2019-03-09 23:21:42 20.6 24 22.7
003A77C4 2019-03-09 22:50:17 20.6 23 22.6
003A77C4 2019-03-09 22:18:54 20.6 23 23.3
003A77C4 2019-03-09 21:47:31 20.6 23 23.4
003A77C4 2019-03-09 21:16:10 20.6 23 23.4
003A77C4 2019-03-09 20:44:46 20.6 23 23.5
003A77C4 2019-03-09 20:13:23 20.7 23 23.4
003A77C4 2019-03-09 19:41:57 20.7 23 23.3
003A77C4 2019-03-09 19:10:33 20.7 23 23.4
003A77C4 2019-03-09 18:39:09 20.7 23 23.4
003A77C4 2019-03-09 18:07:45 20.7 23 23.3
003A77C4 2019-03-09 17:36:22 20.8 23 22.5
003A77C4 2019-03-09 17:04:59 20.8 23 22.4
003A77C4 2019-03-09 16:33:37 20.8 23 22.5
003A77C4 2019-03-09 16:02:15 20.8 23 22.5
003A77C4 2019-03-09 15:30:53 20.8 23 22.5
003A77C4 2019-03-09 14:59:28 20.7 23 22.5
003A77C4 2019-03-09 14:28:04 20.7 23 22.6
003A77C4 2019-03-09 13:56:42 20.7 23 22.6
003A77C4 2019-03-09 13:25:20 20.7 23 22.7
003A77C4 2019-03-09 12:53:27 20.6 23 22.7
003A77C4 2019-03-09 12:22:03 20.6 23 22.8
003A77C4 2019-03-09 11:50:41 20.6 23 22.9
003A77C4 2019-03-09 11:19:21 20.6 24 22.9
003A77C4 2019-03-09 10:48:00 20.6 24 22.1
003A77C4 2019-03-09 10:16:37 20.6 24 22.1
003A77C4 2019-03-09 09:45:13 20.6 24 21.1
003A77C4 2019-03-09 09:13:47 20.5 24 21.1
003A77C4 2019-03-09 08:42:22 20.6 24 20.9
003A77C4 2019-03-09 08:11:00 20.6 25 20.8
003A77C4 2019-03-09 07:39:36 20.5 25 21.1
003A77C4 2019-03-09 07:08:13 20.6 25 22.1
003A77C4 2019-03-09 06:36:49 20.6 25 22
003A77C4 2019-03-09 06:05:25 20.6 26 21.9
003A77C4 2019-03-09 05:34:02 20.6 26 21.9
003A77C4 2019-03-09 05:02:39 20.7 26 21.9
003A77C4 2019-03-09 04:31:13 20.7 26 22.8
003A77C4 2019-03-09 03:59:48 20.7 26 22.9
003A77C4 2019-03-09 03:28:24 20.7 26 22.8
003A77C4 2019-03-09 02:57:00 20.7 27 22.8
003A77C4 2019-03-09 02:25:36 20.7 27 22.9
003A77C4 2019-03-09 01:54:11 20.8 27 23
003A77C4 2019-03-09 01:22:47 20.7 27 23
003A77C4 2019-03-09 00:51:23 20.8 27 23.1
003A77C4 2019-03-09 00:19:58 20.8 27 23.1
003A77C4 2019-03-08 23:48:33 20.8 27 23.1
003A77C4 2019-03-08 23:17:09 20.9 27 23
003A77C4 2019-03-08 22:45:47 20.9 27 23
003A77C4 2019-03-08 22:14:25 20.9 27 23
003A77C4 2019-03-08 21:43:00 20.9 27 23.7
003A77C4 2019-03-08 21:11:36 20.9 27 23.8
003A77C4 2019-03-08 20:40:14 20.9 27 23.7
003A77C4 2019-03-08 20:08:51 21 27 23.7
003A77C4 2019-03-08 19:37:28 21 27 23.8
003A77C4 2019-03-08 19:06:05 21 27 23.8
003A77C4 2019-03-08 18:34:41 21 27 23.7
003A77C4 2019-03-08 18:03:16 21 27 23
003A77C4 2019-03-08 17:31:52 21.1 27 23.1
003A77C4 2019-03-08 17:00:30 21.1 28 23.1
003A77C4 2019-03-08 16:29:06 21.1 28 23.2
003A77C4 2019-03-08 15:57:41 21.1 28 23.3
003A77C4 2019-03-08 15:26:19 21 28 22.4
003A77C4 2019-03-08 14:54:56 21 27 22.6
003A77C4 2019-03-08 14:23:32 21 27 22.7
003A77C4 2019-03-08 13:52:12 20.9 27 22.8
003A77C4 2019-03-08 13:20:53 20.9 27 22.8
003A77C4 2019-03-08 12:49:34 20.9 27 22.6
003A77C4 2019-03-08 12:18:13 20.8 27 22.7
003A77C4 2019-03-08 11:46:51 20.8 26 22.5
003A77C4 2019-03-08 11:15:30 20.8 26 22.4
003A77C4 2019-03-08 10:43:37 20.8 25 22.7
003A77C4 2019-03-08 10:12:17 20.8 25 22.7
003A77C4 2019-03-08 09:40:58 20.7 25 22.8
003A77C4 2019-03-08 09:09:38 20.7 25 22.8
003A77C4 2019-03-08 08:38:18 20.7 24 22.7
003A77C4 2019-03-08 08:06:59 20.7 24 22.7
003A77C4 2019-03-08 07:35:39 20.7 24 22.7
003A77C4 2019-03-08 07:04:19 20.7 24 23.4
003A77C4 2019-03-08 06:32:58 20.7 23 23.4
003A77C4 2019-03-08 06:01:38 20.7 23 23.3
003A77C4 2019-03-08 05:30:16 20.7 23 23.4
003A77C4 2019-03-08 04:58:55 20.7 23 23.4
003A77C4 2019-03-08 04:27:35 20.7 23 23.4
003A77C4 2019-03-08 03:56:14 20.7 23 23.3
003A77C4 2019-03-08 03:24:52 20.7 23 23.2
003A77C4 2019-03-08 02:53:31 20.7 23 23.3
003A77C4 2019-03-08 02:22:12 20.7 23 23.2
003A77C4 2019-03-08 01:50:51 20.7 23 23.1
003A77C4 2019-03-08 01:19:31 20.7 23 23.2
003A77C4 2019-03-08 00:48:11 20.7 23 23.2
003A77C4 2019-03-08 00:16:49 20.7 23 23.3
003A77C4 2019-03-07 23:45:27 20.8 23 23.2
003A77C4 2019-03-07 23:14:07 20.8 23 23.3
003A77C4 2019-03-07 22:42:44 20.8 22 23.3
003A77C4 2019-03-07 22:11:23 20.8 22 23.2
003A77C4 2019-03-07 21:40:05 20.9 22 23.1
003A77C4 2019-03-07 21:08:42 20.9 22 23
003A77C4 2019-03-07 20:37:20 20.9 22 22.9
003A77C4 2019-03-07 20:05:58 20.9 23 22.3
003A77C4 2019-03-07 19:34:39 20.9 23 22.3
003A77C4 2019-03-07 19:03:18 21 23 22.4
003A77C4 2019-03-07 18:31:58 21 23 22.4
003A77C4 2019-03-07 18:00:37 21.1 23 21.3
003A77C4 2019-03-07 17:29:16 21.2 23 21.3
003A77C4 2019-03-07 16:57:56 21.2 23 21.2
003A77C4 2019-03-07 16:26:35 21.2 23 21
003A77C4 2019-03-07 15:55:16 21.1 22 22
003A77C4 2019-03-07 15:23:55 21.1 22 22.1
003A77C4 2019-03-07 14:52:34 21.1 22 22.1
003A77C4 2019-03-07 14:21:14 21.1 22 22.2
003A77C4 2019-03-07 13:49:54 21 21 22.2
003A77C4 2019-03-07 13:18:33 21 21 22.1
003A77C4 2019-03-07 12:47:13 20.9 20 21.9
003A77C4 2019-03-07 12:15:55 20.9 19 21.8
003A77C4 2019-03-07 11:44:33 20.9 19 21.6
003A77C4 2019-03-07 11:13:11 20.9 19 21.5
003A77C4 2019-03-07 10:41:50 20.8 18 21.4
003A77C4 2019-03-07 10:10:29 20.7 18 21.3
003A77C4 2019-03-07 09:39:09 20.7 17 21.2
003A77C4 2019-03-07 09:07:47 20.7 17 21.2
003A77C4 2019-03-07 08:35:51 20.7 16 21.1
003A77C4 2019-03-07 08:04:28 20.7 16 21.1
003A77C4 2019-03-07 07:33:07 20.7 15 20.8
003A77C4 2019-03-07 07:01:45 20.7 15 20.8
003A77C4 2019-03-07 06:30:25 20.7 15 20.7
003A77C4 2019-03-07 05:59:05 20.7 15 20.7
003A77C4 2019-03-07 05:27:45 20.7 14 20.6
003A77C4 2019-03-07 04:56:25 20.7 14 20.6
003A77C4 2019-03-07 04:25:05 20.7 14 20.6
003A77C4 2019-03-07 03:53:43 20.7 14 20.8
003A77C4 2019-03-07 03:22:22 20.7 14 19.4
003A77C4 2019-03-07 02:51:02 20.7 13 19.1
003A77C4 2019-03-07 02:19:41 20.7 13 19.2
003A77C4 2019-03-07 01:48:20 20.7 13 19.5
003A77C4 2019-03-07 01:17:01 20.7 13 19.3
003A77C4 2019-03-07 00:45:40 20.7 13 19.5
003A77C4 2019-03-07 00:14:17 20.7 13 19.6
003A77C4 2019-03-06 23:42:53 20.7 12 19.9
003A77C4 2019-03-06 23:11:32 20.7 12 19.8
003A77C4 2019-03-06 22:40:10 20.7 12 19.8
003A77C4 2019-03-06 22:08:49 20.7 12 19.8
003A77C4 2019-03-06 21:37:27 20.8 12 19.8
003A77C4 2019-03-06 21:06:06 20.8 12 19.8
003A77C4 2019-03-06 20:34:45 20.8 12 19.8
003A77C4 2019-03-06 20:03:26 20.8 11 19.8
003A77C4 2019-03-06 19:32:07 20.8 11 20
003A77C4 2019-03-06 19:00:47 20.8 11 19.9
003A77C4 2019-03-06 18:29:26 20.9 11 19.9
003A77C4 2019-03-06 17:58:06 20.9 11 19.7
003A77C4 2019-03-06 17:26:45 20.9 11 19.6
003A77C4 2019-03-06 16:55:25 21 11 19.6
003A77C4 2019-03-06 16:24:04 21 11 19.6
003A77C4 2019-03-06 15:52:43 21 11 19.5
003A77C4 2019-03-06 15:21:22 21 11 19.5
003A77C4 2019-03-06 14:50:03 20.9 11 19.4
003A77C4 2019-03-06 14:18:44 20.8 11 19.2
003A77C4 2019-03-06 13:47:24 20.7 10 19.5
003A77C4 2019-03-06 13:16:02 20.7 10 19.5
003A77C4 2019-03-06 12:44:43 20.7 11 19.1
003A77C4 2019-03-06 12:13:19 20.7 11 19.2
003A77C4 2019-03-06 11:42:00 20.7 11 19.3
003A77C4 2019-03-06 11:10:39 20.7 11 19
003A77C4 2019-03-06 10:39:23 20.6 11 18.9
003A77C4 2019-03-06 10:08:00 20.5 11 19
003A77C4 2019-03-06 09:36:40 20.4 11 19.3
003A77C4 2019-03-06 09:05:20 20.4 11 19.6
003A77C4 2019-03-06 08:33:59 20.4 11 19.5
003A77C4 2019-03-06 08:02:38 20.4 11 19.7
003A77C4 2019-03-06 07:31:19 20.5 12 19.8
003A77C4 2019-03-06 06:59:57 20.7 12 19.9
003A77C4 2019-03-06 06:58:44 20.5 12 19.8
003A77C4 2019-03-06 06:27:23 20.5 12 20
003A77C4 2019-03-06 05:56:02 20.5 12 20.2
003A77C4 2019-03-06 05:24:42 20.5 12 20.3
003A77C4 2019-03-06 04:53:22 20.5 12 20.6
003A77C4 2019-03-06 04:22:02 20.5 12 20.5
003A77C4 2019-03-06 03:50:42 20.6 12 20.9
003A77C4 2019-03-06 03:19:22 20.6 12 20.9
003A77C4 2019-03-06 02:48:01 20.6 12 21
003A77C4 2019-03-06 02:16:39 20.6 12 21.2
003A77C4 2019-03-06 01:45:17 20.6 12 21.1
003A77C4 2019-03-06 01:13:56 20.6 12 21.2
003A77C4 2019-03-06 00:42:35 20.7 13 21.3
003A77C4 2019-03-06 00:11:14 20.7 13 21.2
003A77C4 2019-03-05 23:39:53 20.7 13 21.3
003A77C4 2019-03-05 23:08:31 20.8 13 21.2
003A77C4 2019-03-05 22:37:10 20.8 13 21.2
003A77C4 2019-03-05 22:05:48 20.8 13 21.2
003A77C4 2019-03-05 21:34:27 20.8 13 21.2
003A77C4 2019-03-05 21:03:05 20.9 13 21.1
003A77C4 2019-03-05 20:31:43 20.9 13 21.1
003A77C4 2019-03-05 20:00:22 20.9 12 21.1
003A77C4 2019-03-05 19:29:05 20.9 12 21
003A77C4 2019-03-05 18:57:42 20.9 12 21
003A77C4 2019-03-05 18:26:20 20.9 13 21
003A77C4 2019-03-05 17:55:00 21 13 21
003A77C4 2019-03-05 17:23:39 21 13 20.9
003A77C4 2019-03-05 16:52:16 21.1 14 20.7
003A77C4 2019-03-05 16:20:54 21.1 14 20.7
003A77C4 2019-03-05 15:49:33 21 15 20.7
003A77C4 2019-03-05 15:18:12 20.9 15 20.8
003A77C4 2019-03-05 14:46:51 20.8 16 20.6
003A77C4 2019-03-05 14:15:27 20.7 16 20.9
003A77C4 2019-03-05 13:44:06 20.7 16 20.9
003A77C4 2019-03-05 13:12:44 20.7 16 20.6
003A77C4 2019-03-05 12:41:22 20.6 17 20.8
003A77C4 2019-03-05 12:10:00 20.6 17 20.7
003A77C4 2019-03-05 11:38:38 20.6 17 20.6
003A77C4 2019-03-05 11:07:18 20.6 17 20.9
003A77C4 2019-03-05 10:35:57 20.6 17 21
003A77C4 2019-03-05 10:04:36 20.5 17 21
003A77C4 2019-03-05 09:33:15 20.5 18 21.3
003A77C4 2019-03-05 09:01:52 20.5 18 21.5
003A77C4 2019-03-05 08:30:28 20.5 18 21.5
003A77C4 2019-03-05 07:59:10 20.5 18 21.5
003A77C4 2019-03-05 07:27:48 20.5 19 21.4
003A77C4 2019-03-05 06:56:27 20.5 19 21.6
003A77C4 2019-03-05 06:25:08 20.5 19 21.8
003A77C4 2019-03-05 05:53:43 20.5 19 22
003A77C4 2019-03-05 05:22:23 20.6 19 22
003A77C4 2019-03-05 04:50:29 20.5 19 22.1
003A77C4 2019-03-05 04:19:07 20.5 19 22.3
003A77C4 2019-03-05 03:47:47 20.5 19 22.2
003A77C4 2019-03-05 03:16:27 20.5 19 22.2
003A77C4 2019-03-05 02:45:06 20.5 19 22.2
003A77C4 2019-03-05 02:13:44 20.6 19 22.1
003A77C4 2019-03-05 01:42:22 20.5 19 22.1
003A77C4 2019-03-05 01:10:59 20.5 19 22.1
003A77C4 2019-03-05 00:39:37 20.5 18 22.1
003A77C4 2019-03-05 00:08:15 20.5 18 22
003A77C4 2019-03-04 23:36:55 20.5 18 22.2
003A77C4 2019-03-04 23:05:32 20.5 18 22.1
003A77C4 2019-03-04 22:34:12 20.6 18 21.9
003A77C4 2019-03-04 22:02:52 20.5 18 21.7
003A77C4 2019-03-04 21:31:30 20.5 18 21.7
003A77C4 2019-03-04 21:00:09 20.6 18 21.5
003A77C4 2019-03-04 20:28:48 20.6 18 21.2
003A77C4 2019-03-04 19:57:28 20.5 18 21.2
003A77C4 2019-03-04 19:26:08 20.6 18 21.2
003A77C4 2019-03-04 18:54:47 20.6 18 21.1
003A77C4 2019-03-04 18:23:26 20.6 18 20.9
003A77C4 2019-03-04 17:52:06 20.6 18 20.7
003A77C4 2019-03-04 17:20:45 20.6 18 20.3
003A77C4 2019-03-04 16:49:22 20.6 17 21.5
003A77C4 2019-03-04 16:18:00 20.6 17 21.5
003A77C4 2019-03-04 15:46:38 20.6 17 21.3
003A77C4 2019-03-04 15:15:15 20.5 17 21.1
003A77C4 2019-03-04 14:43:55 20.5 17 21
003A77C4 2019-03-04 14:12:35 20.5 17 20.8
003A77C4 2019-03-04 13:41:15 20.5 17 20.8
003A77C4 2019-03-04 13:09:54 20.4 17 20.7
003A77C4 2019-03-04 12:38:35 20.4 17 20.4
003A77C4 2019-03-04 12:07:14 20.4 17 20.4
003A77C4 2019-03-04 11:35:52 20.3 17 20.4
003A77C4 2019-03-04 11:04:29 20.3 17 20.5
003A77C4 2019-03-04 10:33:08 20.3 17 20.2
003A77C4 2019-03-04 10:01:44 20.2 17 20.4
003A77C4 2019-03-04 09:30:23 20.1 17 20.4
003A77C4 2019-03-04 08:59:03 20.1 17 20.4
003A77C4 2019-03-04 08:27:39 20 17 20.3
003A77C4 2019-03-04 07:56:18 20.1 17 20.1
003A77C4 2019-03-04 07:24:55 20 17 20.1
003A77C4 2019-03-04 06:53:33 20.1 17 20
003A77C4 2019-03-04 06:22:13 20.1 17 19.9
003A77C4 2019-03-04 05:50:50 20.1 17 20
003A77C4 2019-03-04 05:19:28 20.1 17 20
003A77C4 2019-03-04 04:48:08 20.1 17 19.8
003A77C4 2019-03-04 04:16:49 20.1 17 19.8
003A77C4 2019-03-04 03:45:28 20.1 17 17.7
003A77C4 2019-03-04 03:14:01 20.1 17 17.4
003A77C4 2019-03-04 02:42:05 20.1 17 17.8
003A77C4 2019-03-04 02:10:46 20.1 17 17.8
003A77C4 2019-03-04 01:39:24 20.1 17 17.9
003A77C4 2019-03-04 01:08:04 20.1 17 17.8
003A77C4 2019-03-04 00:36:42 20.1 17 17.7
003A77C4 2019-03-04 00:05:21 20.1 17 17.6
003A77C4 2019-03-03 23:34:01 20.1 17 17.4
003A77C4 2019-03-03 23:02:40 20.1 17 17.3
003A77C4 2019-03-03 22:31:19 20.1 17 17
003A77C4 2019-03-03 21:59:57 20.1 17 16.9
003A77C4 2019-03-03 21:28:34 20.1 17 16.4
003A77C4 2019-03-03 20:57:11 20.1 17 16.4
003A77C4 2019-03-03 20:25:48 20.1 17 16.4
003A77C4 2019-03-03 19:54:25 20.1 18 16
003A77C4 2019-03-03 19:23:03 20.2 18 16
003A77C4 2019-03-03 18:51:42 20.2 18 16
003A77C4 2019-03-03 18:20:22 20.2 18 16
003A77C4 2019-03-03 17:49:02 20.2 18 16
003A77C4 2019-03-03 17:17:41 20.2 18 15.8
003A77C4 2019-03-03 16:46:20 20.2 18 15.7
003A77C4 2019-03-03 16:14:59 20.3 18 16.1
003A77C4 2019-03-03 15:43:40 20.2 18 16.5
003A77C4 2019-03-03 15:12:21 20.2 18 16.8
003A77C4 2019-03-03 14:41:02 20.2 18 16.4
003A77C4 2019-03-03 14:09:43 20.2 18 16.3
003A77C4 2019-03-03 13:38:22 20.2 18 16.2
003A77C4 2019-03-03 13:07:02 20.2 18 16.1
003A77C4 2019-03-03 12:35:42 20.2 18 16.3
003A77C4 2019-03-03 12:04:20 20.2 18 16.3
003A77C4 2019-03-03 11:32:58 20.2 18 16.4
003A77C4 2019-03-03 11:01:36 20.2 18 16.3
003A77C4 2019-03-03 10:30:19 20.2 18 16.3
003A77C4 2019-03-03 09:58:55 20.2 18 16.5
003A77C4 2019-03-03 09:27:36 20.2 18 16.5
003A77C4 2019-03-03 08:56:15 20.2 18 16.6
003A77C4 2019-03-03 08:24:53 20.3 18 16.6
003A77C4 2019-03-03 07:53:30 20.2 18 16.6
003A77C4 2019-03-03 07:22:08 20.2 18 19.3
003A77C4 2019-03-03 06:50:46 20.3 18 19.4
003A77C4 2019-03-03 06:19:28 20.3 18 21
003A77C4 2019-03-03 05:48:03 20.3 18 21.1
003A77C4 2019-03-03 05:16:42 20.3 18 21.1
003A77C4 2019-03-03 04:45:22 20.3 18 21.1
003A77C4 2019-03-03 04:14:00 20.3 18 21.2
003A77C4 2019-03-03 03:42:37 20.3 18 21.1
003A77C4 2019-03-03 03:11:16 20.3 18 20.9
003A77C4 2019-03-03 02:39:54 20.4 18 20.8
003A77C4 2019-03-03 02:08:31 20.3 18 20.7
003A77C4 2019-03-03 01:37:10 20.3 18 20.7
003A77C4 2019-03-03 01:05:51 20.4 18 20.7
003A77C4 2019-03-03 00:33:56 20.3 18 20.7
003A77C4 2019-03-03 00:02:32 20.4 18 20.6
003A77C4 2019-03-02 23:31:08 20.4 18 20.6
003A77C4 2019-03-02 22:59:48 20.4 18 20.7
003A77C4 2019-03-02 22:28:29 20.4 18 20.7
003A77C4 2019-03-02 21:57:07 20.4 18 20.7
003A77C4 2019-03-02 21:25:46 20.4 17 20.6
003A77C4 2019-03-02 20:54:24 20.4 17 20.6
003A77C4 2019-03-02 20:23:01 20.4 17 20.5
003A77C4 2019-03-02 19:51:39 20.4 17 20.6
003A77C4 2019-03-02 19:20:16 20.5 17 20.7
003A77C4 2019-03-02 18:48:55 20.5 17 18.9
003A77C4 2019-03-02 18:17:32 20.5 17 18.9
003A77C4 2019-03-02 17:46:11 20.5 17 16.1
003A77C4 2019-03-02 17:14:48 20.6 17 15.9
003A77C4 2019-03-02 16:43:25 20.6 17 18.8
003A77C4 2019-03-02 16:12:02 20.6 17 18.8
003A77C4 2019-03-02 15:40:42 20.6 17 20.6
003A77C4 2019-03-02 15:09:21 20.5 17 20.6
003A77C4 2019-03-02 14:38:01 20.4 16 20.6
003A77C4 2019-03-02 14:06:44 20.4 16 20.6
003A77C4 2019-03-02 13:35:22 20.4 16 21.9
003A77C4 2019-03-02 13:04:00 20.4 16 21.9
003A77C4 2019-03-02 12:32:40 20.4 16 21.8
003A77C4 2019-03-02 12:01:16 20.4 16 21.8
003A77C4 2019-03-02 11:29:53 20.4 16 21.8
003A77C4 2019-03-02 10:58:32 20.4 16 21.8
003A77C4 2019-03-02 10:27:13 20.4 16 21.8
003A77C4 2019-03-02 09:55:53 20.4 15 21.8
003A77C4 2019-03-02 09:24:32 20.4 15 21.8
003A77C4 2019-03-02 08:53:12 20.4 15 21.9
003A77C4 2019-03-02 08:21:53 20.4 15 22
003A77C4 2019-03-02 07:50:33 20.4 15 22.1
003A77C4 2019-03-02 07:19:15 20.4 15 22.4
003A77C4 2019-03-02 06:47:56 20.4 15 22.4
003A77C4 2019-03-02 06:16:38 20.5 15 22.5
003A77C4 2019-03-02 05:45:18 20.5 15 22.8
003A77C4 2019-03-02 05:13:58 20.5 15 22.8
003A77C4 2019-03-02 04:42:36 20.5 14 22.8
003A77C4 2019-03-02 04:11:16 20.5 14 22.9
003A77C4 2019-03-02 03:39:55 20.5 14 22
003A77C4 2019-03-02 03:08:36 20.5 14 22
003A77C4 2019-03-02 02:37:16 20.6 14 20.9
003A77C4 2019-03-02 02:05:55 20.6 14 20.9
003A77C4 2019-03-02 01:34:34 20.6 14 21
003A77C4 2019-03-02 01:03:14 20.7 14 21.2
003A77C4 2019-03-02 00:31:54 20.7 13 19.7
003A77C4 2019-03-02 00:00:35 20.7 13 19.9
003A77C4 2019-03-01 23:29:13 20.8 13 21.3
003A77C4 2019-03-01 22:57:52 20.9 13 21.5
003A77C4 2019-03-01 22:25:58 20.9 13 21.7
003A77C4 2019-03-01 21:54:37 21 13 21.8
003A77C4 2019-03-01 21:23:18 21 12 21.9
003A77C4 2019-03-01 20:51:56 21 12 22
003A77C4 2019-03-01 20:20:36 21 12 21.9
003A77C4 2019-03-01 19:49:15 21 12 21.9
003A77C4 2019-03-01 19:17:55 21 12 21.9
003A77C4 2019-03-01 18:46:34 21.1 12 21.7
003A77C4 2019-03-01 18:15:13 21.1 12 21.7
003A77C4 2019-03-01 17:43:55 21.3 12 21.8
003A77C4 2019-03-01 17:12:33 21.4 13 21.5
003A77C4 2019-03-01 16:41:12 21.5 13 21.5
003A77C4 2019-03-01 16:09:53 21.4 13 21.7
003A77C4 2019-03-01 15:38:33 21.3 14 21.7
003A77C4 2019-03-01 15:07:12 21.2 14 22.6
003A77C4 2019-03-01 14:35:53 20.9 14 22.7
003A77C4 2019-03-01 14:04:34 20.9 14 22.7
003A77C4 2019-03-01 13:33:15 20.9 14 22.9
003A77C4 2019-03-01 13:01:56 20.9 15 22.9
003A77C4 2019-03-01 12:30:36 20.9 15 22.9
003A77C4 2019-03-01 11:59:15 21 15 23.1
003A77C4 2019-03-01 11:27:55 21 16 23.2
003A77C4 2019-03-01 10:56:35 20.9 16 22.5
003A77C4 2019-03-01 10:25:16 20.8 16 22.4
003A77C4 2019-03-01 09:53:57 20.7 16 22.4
003A77C4 2019-03-01 09:22:38 20.6 16 22.4
003A77C4 2019-03-01 08:51:15 20.5 16 22.5
003A77C4 2019-03-01 08:19:52 20.5 17 22.5
003A77C4 2019-03-01 07:48:28 20.5 17 22.6
003A77C4 2019-03-01 07:17:06 20.6 18 22.7
003A77C4 2019-03-01 06:45:44 20.6 18 22.8
003A77C4 2019-03-01 06:14:23 20.6 18 22.8
003A77C4 2019-03-01 05:43:00 20.6 18 22.7
003A77C4 2019-03-01 05:11:38 20.6 18 22.7
003A77C4 2019-03-01 04:40:16 20.6 19 22.6
003A77C4 2019-03-01 04:08:51 20.6 19 22.5
003A77C4 2019-03-01 03:37:31 20.6 19 22.6
003A77C4 2019-03-01 03:06:08 20.6 19 22.5
003A77C4 2019-03-01 02:34:47 20.7 20 22.4
003A77C4 2019-03-01 02:03:25 20.7 20 21.4
003A77C4 2019-03-01 01:32:03 20.7 20 21.6
003A77C4 2019-03-01 01:00:40 20.7 20 21.7
003A77C4 2019-03-01 00:29:19 20.7 21 21.5
003A77C4 2019-02-28 23:57:56 20.8 21 21.6
003A77C4 2019-02-28 23:26:34 20.8 21 21.6
003A77C4 2019-02-28 22:55:14 20.8 22 21.4
003A77C4 2019-02-28 22:23:52 20.8 22 22.3
003A77C4 2019-02-28 21:52:31 20.9 22 22.1
003A77C4 2019-02-28 21:21:09 20.9 23 22.3
003A77C4 2019-02-28 20:49:46 20.9 23 22.2
003A77C4 2019-02-28 20:17:56 21 23 22.3
003A77C4 2019-02-28 19:46:33 21 23 22.4
003A77C4 2019-02-28 19:15:11 21 23 22.5
003A77C4 2019-02-28 18:43:49 21 23 22.3
003A77C4 2019-02-28 18:12:25 21.1 24 22.4
003A77C4 2019-02-28 17:41:04 21.3 25 22.6
003A77C4 2019-02-28 17:09:42 21.4 26 22.7
003A77C4 2019-02-28 16:38:19 21.5 26 22.7
003A77C4 2019-02-28 16:06:56 21.4 26 23
003A77C4 2019-02-28 15:35:35 21.4 26 23.8
003A77C4 2019-02-28 15:04:13 21.3 25 24.4
003A77C4 2019-02-28 14:32:51 21.3 25 24.4
003A77C4 2019-02-28 14:01:30 21.3 25 24.6
003A77C4 2019-02-28 13:30:09 21.3 25 24.6
003A77C4 2019-02-28 12:58:48 21.3 25 24.5
003A77C4 2019-02-28 12:27:25 21.2 25 24.5
003A77C4 2019-02-28 11:56:04 21.2 24 24.5
003A77C4 2019-02-28 11:24:44 21.2 24 24.5
003A77C4 2019-02-28 10:53:22 21.1 24 24.5
003A77C4 2019-02-28 10:22:01 20.9 23 24.6
003A77C4 2019-02-28 09:50:39 20.9 23 24
003A77C4 2019-02-28 09:19:15 20.8 22 24.1
003A77C4 2019-02-28 08:47:53 20.8 22 24.1
003A77C4 2019-02-28 08:16:30 20.8 22 24.1
003A77C4 2019-02-28 07:45:07 20.8 22 24.1
003A77C4 2019-02-28 07:13:44 20.8 22 24
003A77C4 2019-02-28 06:42:24 20.8 22 24
003A77C4 2019-02-28 06:11:05 20.8 22 23.9
003A77C4 2019-02-28 05:39:41 20.8 22 24
003A77C4 2019-02-28 05:08:21 20.8 22 24
003A77C4 2019-02-28 04:36:59 20.8 22 23.9
003A77C4 2019-02-28 04:05:36 20.8 22 23.9
003A77C4 2019-02-28 03:34:16 20.8 22 23.8
003A77C4 2019-02-28 03:02:56 20.8 22 23.6
003A77C4 2019-02-28 02:31:35 20.8 22 22.9
003A77C4 2019-02-28 02:00:13 20.9 22 21.9
003A77C4 2019-02-28 01:28:50 20.8 22 21.9
003A77C4 2019-02-28 00:57:25 20.9 22 21.7
003A77C4 2019-02-28 00:26:01 20.9 22 21.6
003A77C4 2019-02-27 23:54:37 20.9 22 21.6
003A77C4 2019-02-27 23:23:15 20.9 22 21.4
003A77C4 2019-02-27 22:51:55 21 22 21.4
003A77C4 2019-02-27 22:20:33 21 22 21.4
003A77C4 2019-02-27 21:49:12 21 23 21.3
003A77C4 2019-02-27 21:17:52 21.1 23 21.1
003A77C4 2019-02-27 20:46:31 21.1 23 21.2
003A77C4 2019-02-27 20:15:09 21.2 23 21.2
003A77C4 2019-02-27 19:43:47 21.2 23 21.2
003A77C4 2019-02-27 19:12:26 21.2 23 21.3
003A77C4 2019-02-27 18:41:06 21.3 23 21.1
003A77C4 2019-02-27 18:09:13 21.5 23 21.3
003A77C4 2019-02-27 17:37:53 21.7 24 21.2
003A77C4 2019-02-27 17:06:32 21.7 25 21.3
003A77C4 2019-02-27 16:35:10 21.8 26 20.9
003A77C4 2019-02-27 16:03:48 21.7 26 21.1
003A77C4 2019-02-27 15:32:25 21.7 26 21.1
003A77C4 2019-02-27 15:01:03 21.6 26 21.2
003A77C4 2019-02-27 14:29:40 21.4 26 21.2
003A77C4 2019-02-27 13:58:16 21.3 26 21.3
003A77C4 2019-02-27 13:26:55 21.2 25 21.4
003A77C4 2019-02-27 12:55:33 21.3 25 21.3
003A77C4 2019-02-27 12:24:12 21.3 25 21.2
003A77C4 2019-02-27 11:52:51 21.2 25 21.2
003A77C4 2019-02-27 11:21:28 21.2 25 21.2
003A77C4 2019-02-27 10:50:06 21.2 25 21.3
003A77C4 2019-02-27 10:18:44 21.1 25 21.5
003A77C4 2019-02-27 09:47:20 21 24 21.6
003A77C4 2019-02-27 09:16:00 20.9 24 21.6
003A77C4 2019-02-27 08:44:38 20.9 24 21.6
003A77C4 2019-02-27 08:13:17 20.9 23 21.6
003A77C4 2019-02-27 07:41:56 20.9 23 21.5
003A77C4 2019-02-27 07:10:33 20.9 23 21.4
003A77C4 2019-02-27 06:39:12 20.9 23 21.1
003A77C4 2019-02-27 06:07:51 20.9 23 21.3
003A77C4 2019-02-27 05:36:29 21 23 21
003A77C4 2019-02-27 05:05:07 20.9 23 21
003A77C4 2019-02-27 04:33:45 21 23 21
003A77C4 2019-02-27 04:02:22 20.9 23 20.9
003A77C4 2019-02-27 03:31:02 21 23 21
003A77C4 2019-02-27 02:59:40 21 23 20.9
003A77C4 2019-02-27 02:28:19 21 23 20.8
003A77C4 2019-02-27 01:56:57 21.1 23 20.8
003A77C4 2019-02-27 01:25:35 21.1 23 21.1
003A77C4 2019-02-27 00:54:13 21.1 23 20.8
003A77C4 2019-02-27 00:22:48 21.2 23 20.8
003A77C4 2019-02-26 23:51:24 21.2 24 20.8
003A77C4 2019-02-26 23:20:01 21.2 24 21
003A77C4 2019-02-26 22:48:37 21.2 24 21.1
003A77C4 2019-02-26 22:17:14 21.3 24 21
003A77C4 2019-02-26 21:45:51 21.4 24 20.9
003A77C4 2019-02-26 21:14:28 21.4 24 22
003A77C4 2019-02-26 20:43:09 21.4 24 22.7
003A77C4 2019-02-26 20:11:47 21.5 24 23.5
003A77C4 2019-02-26 19:40:24 21.6 24 24.2
003A77C4 2019-02-26 19:09:02 21.6 24 24.7
003A77C4 2019-02-26 18:37:41 21.7 24 25.2
003A77C4 2019-02-26 18:06:18 21.8 24 25.6
003A77C4 2019-02-26 17:34:56 21.9 24 26.1
003A77C4 2019-02-26 17:03:36 22 24 26.4
003A77C4 2019-02-26 16:32:15 22 24 26.8
003A77C4 2019-02-26 16:00:20 21.9 25 27.4
003A77C4 2019-02-26 15:28:57 21.8 25 27.6
003A77C4 2019-02-26 14:57:35 21.7 25 27.9
003A77C4 2019-02-26 14:26:15 21.6 24 28.2
003A77C4 2019-02-26 13:54:50 21.6 25 28.4
003A77C4 2019-02-26 13:23:28 21.6 25 28.6
003A77C4 2019-02-26 12:52:06 21.6 25 28.8
003A77C4 2019-02-26 12:20:44 21.5 25 29
003A77C4 2019-02-26 11:49:21 21.4 25 29.2
003A77C4 2019-02-26 11:17:58 21.4 24 29.3
003A77C4 2019-02-26 10:46:34 21.3 24 29.5
003A77C4 2019-02-26 10:15:10 21.1 24 29.7
003A77C4 2019-02-26 09:43:47 21 24 29.8
003A77C4 2019-02-26 09:12:25 20.9 23 30
003A77C4 2019-02-26 08:41:03 20.9 23 30
003A77C4 2019-02-26 08:09:43 20.9 23 30
003A77C4 2019-02-26 07:38:19 20.9 23 30
003A77C4 2019-02-26 07:06:58 20.9 23 30
003A77C4 2019-02-26 06:35:36 20.9 23 30
003A77C4 2019-02-26 06:04:14 20.9 22 30
003A77C4 2019-02-26 05:32:52 20.9 22 30
003A77C4 2019-02-26 05:01:30 20.9 22 29.8
003A77C4 2019-02-26 04:30:08 20.9 22 29.8
003A77C4 2019-02-26 03:58:46 20.9 22 29.7
003A77C4 2019-02-26 03:27:24 21 22 29.5
003A77C4 2019-02-26 02:56:02 20.9 22 29.3
003A77C4 2019-02-26 02:24:40 20.9 22 29.1
003A77C4 2019-02-26 01:53:18 21 22 28.9
003A77C4 2019-02-26 01:21:56 21 21 28.7
003A77C4 2019-02-26 00:50:34 21 21 28.5
003A77C4 2019-02-26 00:19:11 21.1 21 28.3
003A77C4 2019-02-25 23:47:49 21.1 21 28
003A77C4 2019-02-25 23:16:28 21.1 21 27.8
003A77C4 2019-02-25 22:45:07 21.2 21 27.5
003A77C4 2019-02-25 22:13:45 21.2 21 27.2
003A77C4 2019-02-25 21:42:23 21.2 21 26.9
003A77C4 2019-02-25 21:11:02 21.3 21 26.5
003A77C4 2019-02-25 20:39:41 21.3 21 26.1
003A77C4 2019-02-25 20:08:21 21.4 21 25.7
003A77C4 2019-02-25 19:36:58 21.5 21 25.7
003A77C4 2019-02-25 19:05:35 21.5 21 25.3
003A77C4 2019-02-25 18:34:11 21.6 21 24.7
003A77C4 2019-02-25 18:02:49 21.7 21 24.2
003A77C4 2019-02-25 17:31:27 21.7 21 23.6
003A77C4 2019-02-25 17:00:04 21.7 21 22.8
003A77C4 2019-02-25 16:28:41 21.7 22 22
003A77C4 2019-02-25 15:57:21 21.8 22 22.1
003A77C4 2019-02-25 15:25:55 21.8 22 20.8
003A77C4 2019-02-25 14:54:31 21.7 22 20.7
003A77C4 2019-02-25 14:23:08 21.8 22 21.8
003A77C4 2019-02-25 14:21:55 21.5 22 22
003A77C4 2019-02-25 13:50:32 21.4 22 22
003A77C4 2019-02-25 13:19:10 21.4 22 22.1
003A77C4 2019-02-25 12:47:49 21.3 22 23
003A77C4 2019-02-25 12:16:28 21.2 22 22.9
003A77C4 2019-02-25 11:45:05 21.2 22 22.9
003A77C4 2019-02-25 11:13:43 21.1 22 22.8
003A77C4 2019-02-25 10:42:21 21 22 22.7
003A77C4 2019-02-25 10:10:59 20.8 22 22.7
003A77C4 2019-02-25 09:39:41 20.7 22 22.7
003A77C4 2019-02-25 09:08:15 20.7 22 22.8
003A77C4 2019-02-25 08:36:58 20.6 22 22.8
003A77C4 2019-02-25 08:05:31 20.6 22 22.7
003A77C4 2019-02-25 07:34:08 20.6 22 22.7
003A77C4 2019-02-25 07:02:46 20.6 22 21.7
003A77C4 2019-02-25 06:31:24 20.7 22 21.7
003A77C4 2019-02-25 06:00:03 20.6 22 21.7
003A77C4 2019-02-25 05:28:37 20.7 22 21.7
003A77C4 2019-02-25 04:57:15 20.7 22 21.6
003A77C4 2019-02-25 04:25:54 20.7 22 21.6
003A77C4 2019-02-25 03:54:33 20.7 22 21.5
003A77C4 2019-02-25 03:23:12 20.7 22 21.4
003A77C4 2019-02-25 02:51:49 20.7 22 21.5
003A77C4 2019-02-25 02:20:28 20.7 22 21.5
003A77C4 2019-02-25 01:49:06 20.7 22 20.2
003A77C4 2019-02-25 01:17:44 20.7 22 19.9
003A77C4 2019-02-25 00:46:22 20.7 22 20
003A77C4 2019-02-25 00:14:58 20.7 22 20
003A77C4 2019-02-24 23:43:35 20.7 22 17.9
003A77C4 2019-02-24 23:12:11 20.8 23 17.7
003A77C4 2019-02-24 22:40:47 20.7 23 17.9
003A77C4 2019-02-24 22:09:23 20.8 23 17.9
003A77C4 2019-02-24 21:37:58 20.8 23 18
003A77C4 2019-02-24 21:06:35 20.8 23 18
003A77C4 2019-02-24 20:35:12 20.8 22 17.9
003A77C4 2019-02-24 20:03:49 20.8 22 17.7
003A77C4 2019-02-24 19:32:25 20.8 22 17.8
003A77C4 2019-02-24 19:01:01 20.8 22 17.9
003A77C4 2019-02-24 18:29:39 20.8 22 17.9
003A77C4 2019-02-24 17:58:18 20.8 22 17.7
003A77C4 2019-02-24 17:26:56 20.8 22 17.6
003A77C4 2019-02-24 16:55:31 20.8 22 17.5
003A77C4 2019-02-24 16:24:07 20.8 21 17.3
003A77C4 2019-02-24 15:52:46 20.8 22 17.3
003A77C4 2019-02-24 15:21:25 20.8 21 17.6
003A77C4 2019-02-24 14:50:01 20.8 21 17.2
003A77C4 2019-02-24 14:18:38 20.8 21 17.7
003A77C4 2019-02-24 13:47:16 20.8 21 17.5
003A77C4 2019-02-24 13:15:54 20.8 21 17.6
003A77C4 2019-02-24 12:44:32 20.8 21 17.8
003A77C4 2019-02-24 12:12:36 20.8 21 18.2
003A77C4 2019-02-24 11:41:12 20.8 21 17.9
003A77C4 2019-02-24 11:09:48 20.8 21 18
003A77C4 2019-02-24 10:38:26 20.8 21 20.1
003A77C4 2019-02-24 10:07:01 20.8 21 20
003A77C4 2019-02-24 09:35:37 20.8 20 20.1
003A77C4 2019-02-24 09:04:13 20.8 20 21.4
003A77C4 2019-02-24 08:32:50 20.8 20 21.5
003A77C4 2019-02-24 08:01:26 20.8 20 21.6
003A77C4 2019-02-24 07:30:03 20.9 20 21.6
003A77C4 2019-02-24 06:58:41 20.9 20 21.6
003A77C4 2019-02-24 06:27:18 20.9 20 21.7
003A77C4 2019-02-24 05:55:57 20.9 20 21.7
003A77C4 2019-02-24 05:24:33 20.9 20 21.8
003A77C4 2019-02-24 04:53:09 20.9 20 21.8
003A77C4 2019-02-24 04:21:52 20.9 20 21.8
003A77C4 2019-02-24 03:50:26 20.9 20 21.8
003A77C4 2019-02-24 03:19:03 20.9 20 21.8
003A77C4 2019-02-24 02:47:44 20.9 20 21.6
003A77C4 2019-02-24 02:16:21 20.9 20 21.7
003A77C4 2019-02-24 01:45:02 21 20 21.6
003A77C4 2019-02-24 01:13:40 21 19 21.6
003A77C4 2019-02-24 00:42:20 21 19 21.5
003A77C4 2019-02-24 00:10:57 21 19 21.5
003A77C4 2019-02-23 23:39:37 21 19 21.4
003A77C4 2019-02-23 23:08:16 21 19 21.4
003A77C4 2019-02-23 22:36:56 21.1 19 21.5
003A77C4 2019-02-23 22:05:36 21.1 19 21.4
003A77C4 2019-02-23 21:34:16 21.1 18 20.3
003A77C4 2019-02-23 21:02:56 21.2 18 20.4
003A77C4 2019-02-23 20:31:36 21.2 18 20.4
003A77C4 2019-02-23 20:00:16 21.2 18 18.5
003A77C4 2019-02-23 19:28:56 21.2 18 18.3
003A77C4 2019-02-23 18:57:37 21.2 17 18.5
003A77C4 2019-02-23 18:26:15 21.2 17 18.6
003A77C4 2019-02-23 17:54:53 21.3 17 19
003A77C4 2019-02-23 17:23:33 21.3 16 18.9
003A77C4 2019-02-23 16:52:11 21.2 16 19.2
003A77C4 2019-02-23 16:20:51 21.2 16 18.9
003A77C4 2019-02-23 15:49:30 21.1 16 19
003A77C4 2019-02-23 15:18:05 21 16 19.4
003A77C4 2019-02-23 14:46:42 20.9 15 19.3
003A77C4 2019-02-23 14:15:19 20.9 15 19.6
003A77C4 2019-02-23 13:43:57 20.9 15 19.6
003A77C4 2019-02-23 13:12:35 20.9 15 19.7
003A77C4 2019-02-23 12:41:13 20.9 15 19.6
003A77C4 2019-02-23 12:09:49 20.9 15 19.6
003A77C4 2019-02-23 11:38:26 20.9 15 19.8
003A77C4 2019-02-23 11:07:03 20.9 15 19.8
003A77C4 2019-02-23 10:35:42 20.9 15 19.8
003A77C4 2019-02-23 10:03:48 20.9 14 19.6
003A77C4 2019-02-23 09:32:26 20.9 14 19.6
003A77C4 2019-02-23 09:01:05 20.9 14 19.2
003A77C4 2019-02-23 08:29:43 20.9 14 19.2
003A77C4 2019-02-23 07:58:20 20.9 14 19.2
003A77C4 2019-02-23 07:27:00 20.9 14 19.1
003A77C4 2019-02-23 06:55:39 20.8 13 19.2
003A77C4 2019-02-23 06:24:15 20.8 13 19
003A77C4 2019-02-23 05:52:52 20.9 13 19
003A77C4 2019-02-23 05:21:30 20.9 13 18.7
003A77C4 2019-02-23 04:50:06 20.9 13 18.4
003A77C4 2019-02-23 04:18:41 20.9 13 18.1
003A77C4 2019-02-23 03:47:19 20.9 13 18.1
003A77C4 2019-02-23 03:15:59 20.9 13 18.2
003A77C4 2019-02-23 02:44:39 20.9 12 17.7
003A77C4 2019-02-23 02:13:21 20.9 12 18.3
003A77C4 2019-02-23 01:41:58 20.9 12 17.9
003A77C4 2019-02-23 01:10:38 20.9 12 18.2
003A77C4 2019-02-23 00:39:16 20.9 12 18.2
003A77C4 2019-02-23 00:07:55 20.9 12 18.1
003A77C4 2019-02-22 23:36:32 20.9 12 18.5
003A77C4 2019-02-22 23:05:10 20.9 12 18.3
003A77C4 2019-02-22 22:33:46 21 12 17.9
003A77C4 2019-02-22 22:02:22 21 12 17.8
003A77C4 2019-02-22 21:30:59 21 12 17.9
003A77C4 2019-02-22 20:59:35 21 12 17.5
003A77C4 2019-02-22 20:28:14 21.1 12 17.5
003A77C4 2019-02-22 19:56:51 21.1 12 17.6
003A77C4 2019-02-22 19:25:29 21.1 12 17.4
003A77C4 2019-02-22 18:54:12 21.2 12 17.4
003A77C4 2019-02-22 18:22:47 21.2 12 17.5
003A77C4 2019-02-22 17:51:26 21.2 12 17.3
003A77C4 2019-02-22 17:20:03 21.3 12 17.2
003A77C4 2019-02-22 16:48:43 21.3 12 17.3
003A77C4 2019-02-22 16:17:23 21.2 13 17.2
003A77C4 2019-02-22 15:46:02 21.1 13 17.4
003A77C4 2019-02-22 15:14:38 21.1 13 17.2
003A77C4 2019-02-22 14:43:15 20.9 13 17.6
003A77C4 2019-02-22 14:11:52 20.9 13 17.4
003A77C4 2019-02-22 13:40:29 20.9 13 17.3
003A77C4 2019-02-22 13:09:08 20.9 13 16.6
003A77C4 2019-02-22 12:37:47 20.8 13 16.7
003A77C4 2019-02-22 12:06:24 20.8 13 16.5
003A77C4 2019-02-22 11:35:03 20.7 13 16.1
003A77C4 2019-02-22 11:03:41 20.7 13 16.1
003A77C4 2019-02-22 10:32:21 20.6 13 15.4
003A77C4 2019-02-22 10:00:56 20.5 13 15.4
003A77C4 2019-02-22 09:29:34 20.5 13 16.4
003A77C4 2019-02-22 08:58:14 20.5 13 16.5
003A77C4 2019-02-22 08:26:55 20.7 13 16.4
003A77C4 2019-02-22 08:25:42 20.5 13 16.7
003A77C4 2019-02-22 07:54:22 20.5 13 16.6
003A77C4 2019-02-22 07:23:00 20.5 13 16.5
003A77C4 2019-02-22 06:51:38 20.5 13 16.5
003A77C4 2019-02-22 06:20:18 20.5 13 16.9
003A77C4 2019-02-22 05:48:56 20.6 13 17.1
003A77C4 2019-02-22 05:17:36 20.6 13 17.3
003A77C4 2019-02-22 04:46:13 20.6 13 17.4
003A77C4 2019-02-22 04:14:52 20.6 13 17.2
003A77C4 2019-02-22 03:43:28 20.6 13 17.2
003A77C4 2019-02-22 03:12:06 20.6 13 17.3
003A77C4 2019-02-22 02:40:45 20.6 13 19.7
003A77C4 2019-02-22 02:09:25 20.6 13 21
003A77C4 2019-02-22 01:38:01 20.6 13 22.2
003A77C4 2019-02-22 01:06:39 20.6 13 23.1
003A77C4 2019-02-22 00:35:18 20.7 13 23.9
003A77C4 2019-02-22 00:03:57 20.7 13 23.9
003A77C4 2019-02-21 23:32:37 20.7 13 24
003A77C4 2019-02-21 23:01:15 20.7 13 24
003A77C4 2019-02-21 22:29:55 20.8 12 24.1
003A77C4 2019-02-21 21:58:33 20.8 12 24.1
003A77C4 2019-02-21 21:27:11 20.8 12 24.1
003A77C4 2019-02-21 20:55:49 20.9 12 24
003A77C4 2019-02-21 20:24:29 20.9 12 24
003A77C4 2019-02-21 19:53:12 21 12 24
003A77C4 2019-02-21 19:21:51 21 12 24
003A77C4 2019-02-21 18:50:31 21.1 12 24.1
003A77C4 2019-02-21 18:19:10 21.2 12 24.2
003A77C4 2019-02-21 17:47:50 21.3 13 24.2
003A77C4 2019-02-21 17:16:30 21.3 13 24.2
003A77C4 2019-02-21 16:45:10 21.3 13 24.1
003A77C4 2019-02-21 16:13:51 21 13 24.1
003A77C4 2019-02-21 15:42:31 20.9 12 24.1
003A77C4 2019-02-21 15:11:13 20.8 12 24.2
003A77C4 2019-02-21 14:39:51 20.7 12 24.3
003A77C4 2019-02-21 14:08:29 20.6 12 24.3
003A77C4 2019-02-21 13:37:10 20.6 13 23.7
003A77C4 2019-02-21 13:05:50 20.6 13 23
003A77C4 2019-02-21 12:34:31 20.6 13 22.3
003A77C4 2019-02-21 12:03:11 20.6 14 21.2
003A77C4 2019-02-21 11:31:51 20.6 14 19.7
003A77C4 2019-02-21 11:00:30 20.6 14 19.7
003A77C4 2019-02-21 10:29:08 20.6 14 19.5
003A77C4 2019-02-21 09:57:48 20.6 14 19.7
003A77C4 2019-02-21 09:26:26 20.6 15 19.9
003A77C4 2019-02-21 08:55:07 20.6 15 20.3
003A77C4 2019-02-21 08:23:48 20.5 16 20.7
003A77C4 2019-02-21 07:52:31 20.6 16 20.8
003A77C4 2019-02-21 07:21:11 20.6 16 20.8
003A77C4 2019-02-21 06:49:48 20.8 16 20.8
003A77C4 2019-02-21 06:48:35 20.6 16 20.9
003A77C4 2019-02-21 06:17:14 20.6 17 20.8
003A77C4 2019-02-21 05:45:52 20.6 17 20.7
003A77C4 2019-02-21 05:14:33 20.6 17 20.7
003A77C4 2019-02-21 04:43:10 20.6 17 21
003A77C4 2019-02-21 04:11:48 20.6 17 21
003A77C4 2019-02-21 03:40:27 20.6 17 20.9
003A77C4 2019-02-21 03:09:06 20.6 17 20.8
003A77C4 2019-02-21 02:37:45 20.7 17 20.8
003A77C4 2019-02-21 02:06:24 20.7 17 21.8
003A77C4 2019-02-21 01:35:03 20.7 18 22.8
003A77C4 2019-02-21 01:03:42 20.7 18 23.5
003A77C4 2019-02-21 00:32:20 20.7 18 23.4
003A77C4 2019-02-21 00:00:59 20.7 18 23.2
003A77C4 2019-02-20 23:29:36 20.7 18 23.2
003A77C4 2019-02-20 22:58:14 20.7 18 23.2
003A77C4 2019-02-20 22:26:53 20.7 18 23.9
003A77C4 2019-02-20 21:55:30 20.7 18 23.9
003A77C4 2019-02-20 21:24:09 20.7 19 23.8
003A77C4 2019-02-20 20:52:47 20.8 19 23.7
003A77C4 2019-02-20 20:21:25 20.7 19 23.5
003A77C4 2019-02-20 19:50:02 20.8 19 23.3
003A77C4 2019-02-20 19:18:43 20.8 19 23.2
003A77C4 2019-02-20 18:47:20 20.8 18 23.2
003A77C4 2019-02-20 18:15:56 20.8 18 23.2
003A77C4 2019-02-20 17:44:33 20.9 19 23
003A77C4 2019-02-20 17:13:09 20.9 20 23
003A77C4 2019-02-20 16:41:47 20.9 21 23
003A77C4 2019-02-20 16:10:25 20.9 21 23
003A77C4 2019-02-20 15:39:00 20.8 21 22.7
003A77C4 2019-02-20 15:07:38 20.8 21 22.8
003A77C4 2019-02-20 14:36:17 20.8 22 22.8